Home   Weather   Martin Utah   Past weeks
Flag for USA

Past Weather in Martin Utah, Utah, USA — Yesterday and Last 2 Weeks

Now
38 °F

Light rain. Overcast.


Feels Like: 34 °F
Forecast: 39 / 27 °F
Wind: 5 mph from Northwest

Location: Provo Municipal

Current Time: Feb 16, 2020 at 5:41:11 pm

Latest Report: Feb 16, 2020 at 4:56 pm


Visibility: 8 mi

Pressure: 30.06 "Hg

Humidity: 93%

Dew Point: 36 °F

Location of Martin UtahLocation

Past Weather in Martin Utah — Graph

°F

Martin Utah Temperature Yesterday

Maximum temperature yesterday: 40 °F (at 2:56 pm)
Minimum temperature yesterday: 29 °F (at 3:56 am)
Average temperature yesterday: 35 °F

High & Low Weather Summary for the Past Weeks

 TemperatureHumidityPressure
High59 °F (Feb 2, 4:56 pm)97% (Feb 7, 12:56 am)30.41 "Hg (Feb 7, 12:56 am)
Low15 °F (Feb 4, 6:56 am)21% (Feb 2, 4:56 pm)29.37 "Hg (Feb 2, 8:56 pm)
Average31 °F73%30.08 "Hg
* Reported Feb 1 3:56 pm — Feb 16 3:56 pm, Martin Utah. Weather by CustomWeather, © 2020

Note: Actual official high and low records may vary slightly from our data, if they occured in-between our weather recording intervals... More about our weather records

Martin Utah Weather History for the Previous 24 Hours

Scroll right to see more
 ConditionsComfort  
Time TempWeatherWind HumidityBarometerVisibility
3:56 pm
Sun, Feb 16
38 °FLight rain. Overcast.8 mph93%30.05 "Hg9 mi
2:56 pm40 °FOvercast.7 mph86%30.03 "Hg10 mi
1:56 pm39 °FLight rain. More clouds than sun.6 mph86%30.05 "Hg10 mi
1:39 pm39 °FLight rain. Mostly cloudy.5 mph87%30.03 "Hg7 mi
12:56 pm39 °FLight rain. More clouds than sun.6 mph82%30.05 "Hg8 mi
12:24 pm39 °FLight rain. Mostly cloudy.3 mph81%30.05 "Hg8 mi
11:56 am41 °FLight rain. Overcast.3 mph74%30.06 "Hg10 mi
10:56 am40 °FLight rain. More clouds than sun.3 mph86%30.06 "Hg10 mi
9:56 am37 °FLight rain. Cloudy.7 mph89%30.07 "Hg10 mi
8:56 am40 °FLight rain. Mostly cloudy.8 mph77%30.06 "Hg10 mi
7:56 am40 °FMore clouds than sun.9 mph73%30.03 "Hg10 mi
7:28 am37 °FMostly cloudy.9 mph75%30.02 "Hg10 mi
6:56 am37 °FOvercast.7 mph79%30.03 "Hg10 mi
5:56 am36 °FOvercast.3 mph82%30.04 "Hg10 mi
4:56 am36 °FOvercast.3 mph85%30.05 "Hg10 mi
3:56 am35 °FOvercast.5 mph85%30.07 "Hg10 mi
2:56 am36 °FOvercast.No wind82%30.09 "Hg10 mi
1:56 am36 °FOvercast.No wind82%30.10 "Hg10 mi
12:56 am36 °FOvercast.No wind82%30.09 "Hg10 mi
11:56 pm
Sat, Feb 15
36 °FOvercast.No wind79%30.11 "Hg10 mi
10:56 pm37 °FOvercast.No wind79%30.11 "Hg10 mi
9:56 pm37 °FOvercast.5 mph76%30.11 "Hg10 mi
8:56 pm37 °FOvercast.8 mph76%30.13 "Hg10 mi
7:56 pm40 °FOvercast.3 mph53%30.13 "Hg9 mi
6:56 pm39 °FOvercast.5 mph60%30.14 "Hg10 mi
5:56 pm38 °FOvercast.8 mph63%30.14 "Hg10 mi
Weather by CustomWeather, © 2020

See weather overview

Advertising